| time (UTC) | temp F | wind direction | speed MPH | gust MPH | rain 1hr in | rain 24hr in | rain mn in | humidity % | barometer mb |
| 20260503020946 | 20 | 0.0 | 0.0 | 0.00 | 0.00 | 0.00 | 81 | ||
| 20260503015946 | 21 | 0.0 | 0.0 | 0.00 | 0.00 | 0.00 | 81 | ||
| 20260503014946 | 21 | 0.0 | 0.0 | 0.00 | 0.00 | 0.00 | 81 | ||
| 20260503013946 | 21 | 0.0 | 0.0 | 0.00 | 0.00 | 0.00 | 81 | ||
| 20260503011946 | 21 | 0.0 | 0.0 | 0.00 | 0.00 | 0.00 | 82 | ||
| 20260503004946 | 22 | 0.0 | 0.0 | 0.00 | 0.00 | 0.00 | 83 | ||
| 20260503002947 | 22 | 0.0 | 0.0 | 0.00 | 0.00 | 0.00 | 82 | ||
| 20260503001950 | 23 | 0.0 | 0.0 | 0.00 | 0.00 | 0.00 | 83 | ||
| 20260503000946 | 23 | 0.0 | 0.0 | 0.00 | 0.00 | 0.00 | 83 | ||
| 20260502233948 | 23 | 0.0 | 0.0 | 0.00 | 0.00 | 0.00 | 83 | ||
| 20260502231957 | 24 | 0.0 | 0.0 | 0.00 | 0.00 | 0.00 | 83 | ||
| 20260502230946 | 24 | 0.0 | 0.0 | 0.00 | 0.00 | 0.00 | 83 | ||
| 20260502225946 | 24 | 0.0 | 0.0 | 0.00 | 0.00 | 0.00 | 83 | ||
| 20260502223948 | 25 | 0.0 | 0.0 | 0.00 | 0.00 | 0.00 | 83 | ||
| 20260502222946 | 25 | 0.0 | 0.0 | 0.00 | 0.00 | 0.00 | 83 | ||
| 20260502221948 | 25 | 0.0 | 0.0 | 0.00 | 0.00 | 0.00 | 83 | ||
| 20260502220959 | 25 | 0.0 | 0.0 | 0.00 | 0.00 | 0.00 | 83 | ||
| 20260502215946 | 26 | 0.0 | 0.0 | 0.00 | 0.00 | 0.00 | 83 | ||
| 20260502213946 | 26 | 0.0 | 0.0 | 0.00 | 0.00 | 0.00 | 82 | ||
| 20260502211946 | 27 | 0.0 | 0.0 | 0.00 | 0.00 | 0.00 | 82 | ||
| 20260502210946 | 27 | 0.0 | 0.0 | 0.00 | 0.00 | 0.00 | 82 | ||
| 20260502204948 | 27 | 0.0 | 0.0 | 0.00 | 0.00 | 0.00 | 82 | ||
| 20260502203946 | 28 | 0.0 | 0.0 | 0.00 | 0.00 | 0.00 | 81 | ||
| 20260502202946 | 28 | 0.0 | 0.0 | 0.00 | 0.00 | 0.00 | 81 | ||
| 20260502195956 | 29 | 0.0 | 0.0 | 0.00 | 0.00 | 0.00 | 80 | ||
| 20260502194957 | 30 | 0.0 | 0.0 | 0.00 | 0.00 | 0.00 | 80 | ||
| 20260502190947 | 32 | 0.0 | 0.0 | 0.00 | 0.00 | 0.00 | 77 | ||
| 20260502185947 | 33 | 0.0 | 0.0 | 0.00 | 0.00 | 0.00 | 77 | ||
| 20260502184948 | 34 | 0.0 | 0.0 | 0.00 | 0.00 | 0.00 | 77 | ||
| 20260502183949 | 35 | 0.0 | 0.0 | 0.00 | 0.00 | 0.00 | 75 | ||
| 20260502182944 | 37 | 0.0 | 0.0 | 0.00 | 0.00 | 0.00 | 73 | ||
| 20260502181948 | 38 | 0.0 | 0.0 | 0.00 | 0.00 | 0.00 | 72 | ||
| 20260502163946 | 57 | 0.0 | 0.0 | 0.00 | 0.00 | 0.00 | 39 | ||
| 20260502160944 | 61 | 0.0 | 0.0 | 0.00 | 0.00 | 0.00 | 32 | ||
| 20260502121947 | 58 | 0.0 | 0.0 | 0.00 | 0.00 | 0.00 | 32 | ||
| 20260502120946 | 61 | 0.0 | 0.0 | 0.00 | 0.00 | 0.00 | 28 | ||
| 20260502114947 | 61 | 0.0 | 0.0 | 0.00 | 0.00 | 0.00 | 30 | ||
| 20260502113946 | 62 | 0.0 | 0.0 | 0.00 | 0.00 | 0.00 | 26 | ||
| 20260502105951 | 62 | 0.0 | 0.0 | 0.00 | 0.00 | 0.00 | 28 | ||
| 20260502104948 | 60 | 0.0 | 0.0 | 0.00 | 0.00 | 0.00 | 27 | ||
| 20260502101946 | 59 | 0.0 | 0.0 | 0.00 | 0.00 | 0.00 | 30 | ||
| 20260502100949 | 58 | 0.0 | 0.0 | 0.00 | 0.00 | 0.00 | 29 | ||
| 20260502090956 | 59 | 0.0 | 0.0 | 0.00 | 0.00 | 0.00 | 30 | ||
| 20260502070944 | 52 | 0.0 | 0.0 | 0.00 | 0.00 | 0.00 | 50 | ||
| 20260502065944 | 48 | 0.0 | 0.0 | 0.00 | 0.00 | 0.00 | 64 | ||
| 20260502064944 | 45 | 0.0 | 0.0 | 0.00 | 0.00 | 0.00 | 68 | ||
| 20260502063944 | 42 | 0.0 | 0.0 | 0.00 | 0.00 | 0.00 | 76 | ||
| 20260502062944 | 38 | 0.0 | 0.0 | 0.00 | 0.00 | 0.00 | 85 | ||
| 20260502061944 | 35 | 0.0 | 0.0 | 0.00 | 0.00 | 0.00 | 86 | ||
| 20260502060944 | 30 | 0.0 | 0.0 | 0.00 | 0.00 | 0.00 | 85 | ||
| 20260502055944 | 27 | 0.0 | 0.0 | 0.00 | 0.00 | 0.00 | 84 | ||
| 20260502054944 | 25 | 0.0 | 0.0 | 0.00 | 0.00 | 0.00 | 84 | ||
| 20260502053944 | 24 | 0.0 | 0.0 | 0.00 | 0.00 | 0.00 | 83 | ||
| 20260502052944 | 23 | 0.0 | 0.0 | 0.00 | 0.00 | 0.00 | 83 | ||
| 20260502051944 | 22 | 0.0 | 0.0 | 0.00 | 0.00 | 0.00 | 83 | ||
| 20260502050944 | 21 | 0.0 | 0.0 | 0.00 | 0.00 | 0.00 | 83 | ||
| 20260502044944 | 20 | 0.0 | 0.0 | 0.00 | 0.00 | 0.00 | 82 | ||
| 20260502043947 | 20 | 0.0 | 0.0 | 0.00 | 0.00 | 0.00 | 82 | ||
| 20260502041958 | 19 | 0.0 | 0.0 | 0.00 | 0.00 | 0.00 | 81 | ||
| 20260502040957 | 19 | 0.0 | 0.0 | 0.00 | 0.00 | 0.00 | 81 | ||
| 20260502035946 | 19 | 0.0 | 0.0 | 0.00 | 0.00 | 0.00 | 81 | ||
| 20260502034946 | 19 | 0.0 | 0.0 | 0.00 | 0.00 | 0.00 | 81 | ||
| 20260502033953 | 19 | 0.0 | 0.0 | 0.00 | 0.00 | 0.00 | 80 | ||
| 20260502031948 | 20 | 0.0 | 0.0 | 0.00 | 0.00 | 0.00 | 81 | ||
| 20260502030946 | 20 | 0.0 | 0.0 | 0.00 | 0.00 | 0.00 | 81 | ||
| 20260502025951 | 20 | 0.0 | 0.0 | 0.00 | 0.00 | 0.00 | 81 | ||
| 20260502024950 | 20 | 0.0 | 0.0 | 0.00 | 0.00 | 0.00 | 81 | ||
| 20260502023948 | 21 | 0.0 | 0.0 | 0.00 | 0.00 | 0.00 | 81 | ||
| 20260502022949 | 21 | 0.0 | 0.0 | 0.00 | 0.00 | 0.00 | 81 | ||
| 20260502021953 | 21 | 0.0 | 0.0 | 0.00 | 0.00 | 0.00 | 81 |